Buenos Aires, Argentina

9:00 PM America on May 23, 2017 (GMT +0000)
Jorge Newbery Aeroparque

Weather History for SABE - December, 2013

Change the Weather History Date:

Friday, December 6, 2013

  Actual Average Record
Temperature  
Mean Temperature 66 °F -  
Max Temperature 74 °F 81 °F 88 °F (2014)
Min Temperature 57 °F 67 °F 50 °F (1999)
Growing Degree Days 16 (Base 50)    
Moisture  
Dew Point 45 °F    
Average Humidity 41    
Maximum Humidity 63    
Minimum Humidity 22    
Precipitation  
Precipitation 0.00 in 0.13 in - ()
Sea Level Pressure  
Sea Level Pressure 29.94 in    
Wind  
Wind Speed 10 mph ()    
Max Wind Speed 18 mph    
Max Gust Speed -    
Visibility 6.1 miles    
Events      
Averages and records for this station are not official NWS values.
T = Trace of Precipitation, MM = Missing Value Source: Averaged Metar Reports

Daily Weather History Graph

Daily Weather History Graph

Search for Another Location

Airport or City:

Trip Planner

Search our weather history database for the weather conditions in past years. The results will help you decide how hot, cold, wet, or windy it might be!

Date:

Astronomy

Dec. 06, 2013 Rise Set
Actual Time 5:33 AM -03 7:56 PM -03
Civil Twilight 5:04 AM -03 8:25 PM -03
Nautical Twilight 4:28 AM -03 9:01 PM -03
Astronomical Twilight 3:49 AM -03 9:40 PM -03
Moon 9:29 AM -03 (12/6) 11:14 PM -03 (12/6)
Length of Visible Light 15h 20m
Length of Day
14h 22m
Waxing Crescent, 18% of the Moon is Illuminated
Dec 6
Waxing Crescent
Dec 9
First Quarter
Dec 17
Full
Dec 25
Last Quarter
Jan 1
New

Hourly Weather History & Observations

Time (-03) Temp. Dew Point Humidity Pressure Visibility Wind Dir Wind Speed Gust Speed Precip Events Conditions
12:00 AM 66 °F 50 °F 46% 29.98 in 6 mi SE 18.4 mph - -   Scattered Clouds
12:00 AM 66.2 °F 50.0 °F 56% 29.98 in 6.2 mi SE 18.4 mph - N/A   Partly Cloudy
1:00 AM 66.2 °F 46.4 °F 49% 29.98 in - SE 18.4 mph - N/A   Clear
2:00 AM 62.6 °F 46.4 °F 55% 29.98 in - SE 18.4 mph - N/A   Clear
3:00 AM 61 °F 42 °F 37% 29.98 in 6 mi SE 13.8 mph - -   Scattered Clouds
3:00 AM 60.8 °F 41.0 °F 48% 29.98 in - SE 13.8 mph - N/A   Clear
4:00 AM 60.8 °F 42.8 °F 52% 29.98 in - SE 9.2 mph - N/A   Clear
5:00 AM 59.0 °F 42.8 °F 55% 29.98 in - SE 8.1 mph - N/A   Clear
6:00 AM 59 °F 46 °F 52% 30.00 in 6 mi South 5.8 mph - -   Scattered Clouds
6:00 AM 59.0 °F 46.4 °F 63% 29.98 in 6.2 mi South 5.8 mph - N/A   Partly Cloudy
7:00 AM 62.6 °F 46.4 °F 55% 29.98 in 6.2 mi ESE 4.6 mph - N/A   Partly Cloudy
8:00 AM 66.2 °F 39.2 °F 37% 29.98 in - SE 5.8 mph - N/A   Clear
9:00 AM 67 °F 41 °F 27% 29.98 in 6 mi East 6.9 mph - -  
9:00 AM 68.0 °F 41.0 °F 37% 29.98 in - East 6.9 mph - N/A   Clear
10:00 AM 68.0 °F 42.8 °F 40% 29.98 in - East 9.2 mph - N/A   Clear
11:00 AM 69.8 °F 42.8 °F 38% 29.98 in - NE 6.9 mph - N/A   Clear
12:00 PM 69 °F 39 °F 22% 29.96 in 6 mi NE 4.6 mph - -   Clear
12:00 PM 69.8 °F 39.2 °F 33% 29.95 in - NE 4.6 mph - N/A   Clear
1:00 PM 68.0 °F 48.2 °F 49% 29.95 in - NNE 9.2 mph - N/A   Clear
2:00 PM 69.8 °F 48.2 °F 46% 29.92 in - NNE 11.5 mph - N/A   Clear
3:00 PM 71 °F 47 °F 30% 29.92 in 6 mi NNE 9.2 mph - -   Clear
3:00 PM 71.6 °F 46.4 °F 41% 29.92 in - NNE 9.2 mph - N/A   Clear
4:00 PM 73.4 °F 48.2 °F 41% 29.89 in - NE 8.1 mph - N/A   Clear
5:00 PM 73.4 °F 46.4 °F 38% 29.86 in - NNE 8.1 mph - N/A   Clear
6:00 PM 72 °F 46 °F 29% 29.87 in 6 mi NNE 11.5 mph - -   Clear
6:00 PM 71.6 °F 46.4 °F 41% 29.86 in - NNE 11.5 mph - N/A   Clear
7:00 PM 73.4 °F 46.4 °F 38% 29.86 in - NE 8.1 mph - N/A   Clear
8:00 PM 71.6 °F 44.6 °F 38% 29.86 in 6.2 mi NE 6.9 mph - N/A   Partly Cloudy
9:00 PM 72 °F 44 °F 25% 29.86 in 6 mi NE 6.9 mph - -   Clear
9:00 PM 71.6 °F 42.8 °F 35% 29.86 in - NE 6.9 mph - N/A   Clear
10:00 PM 71.6 °F 42.8 °F 35% 29.86 in - NNE 5.8 mph - N/A   Clear
11:00 PM 71.6 °F 44.6 °F 38% 29.86 in - NNE 8.1 mph - N/A   Clear